Location: Unspecified
(0.0000°N, 0.0000°E)
Time: 22:57:22
(UTC+02:00)

Cosmos 1300 - Visible Passes

Search period start: 26 April 2015 00:00
Search period end: 06 May 2015 00:00
Orbit: 521 x 525 km, 82.5° (Epoch: 26 April)

Date Brightness Start Highest point End Pass type
(mag) Time Alt. Az. Time Alt. Az. Time Alt. Az.
28 Apr 5.0 07:21:56 10° NNE 07:25:18 30° E 07:28:45 10° SSE visible
29 Apr 5.3 07:09:29 10° NNE 07:12:40 25° E 07:15:56 10° SE visible
30 Apr 5.6 06:57:05 10° NE 07:00:01 21° E 07:03:04 10° SE visible
30 Apr 6.5 20:28:22 10° WSW 20:29:32 11° W 20:30:26 10° WNW visible
01 May 5.8 06:44:45 10° NE 06:47:22 18° E 06:50:08 10° SE visible
02 May 5.9 06:32:28 10° NE 06:34:42 15° E 06:37:07 10° ESE visible
03 May 6.0 06:20:20 10° ENE 06:22:01 13° E 06:23:56 10° ESE visible
04 May 6.2 06:08:31 10° ENE 06:09:19 11° E 06:10:26 10° E visible
05 May 3.8 07:29:14 10° NW 07:32:25 24° W 07:35:31 10° SSW visible
